Year,Month,Day,Hour,Minute,Value (Times are PST for insolation in W/m^2)
2013,12,06,00,00,0.00
2013,12,06,00,01,0.00
2013,12,06,00,02,0.00
2013,12,06,00,03,0.00
2013,12,06,00,04,0.00
2013,12,06,00,05,0.00
2013,12,06,00,06,0.00
2013,12,06,00,07,0.00
2013,12,06,00,08,0.00
2013,12,06,00,09,0.00
2013,12,06,00,10,0.00
2013,12,06,00,11,0.00
2013,12,06,00,12,0.00
2013,12,06,00,13,0.00
2013,12,06,00,14,0.00
2013,12,06,00,15,0.00
2013,12,06,00,16,0.00
2013,12,06,00,17,0.00
2013,12,06,00,18,0.00
2013,12,06,00,19,0.00
2013,12,06,00,20,0.00
2013,12,06,00,21,0.00
2013,12,06,00,22,0.00
2013,12,06,00,23,0.00
2013,12,06,00,24,0.00
2013,12,06,00,25,0.00
2013,12,06,00,26,0.00
2013,12,06,00,27,0.00
2013,12,06,00,28,0.00
2013,12,06,00,29,0.00
2013,12,06,00,30,0.00
2013,12,06,00,31,0.00
2013,12,06,00,32,0.00
2013,12,06,00,33,0.00
2013,12,06,00,34,0.00
2013,12,06,00,35,0.00
2013,12,06,00,36,0.00
2013,12,06,00,37,0.00
2013,12,06,00,38,0.00
2013,12,06,00,39,0.00
2013,12,06,00,40,0.00
2013,12,06,00,41,0.00
2013,12,06,00,42,0.00
2013,12,06,00,43,0.00
2013,12,06,00,44,0.00
2013,12,06,00,45,0.00
2013,12,06,00,46,0.00
2013,12,06,00,47,0.00
2013,12,06,00,48,0.00
2013,12,06,00,49,0.00
2013,12,06,00,50,0.00
2013,12,06,00,51,0.00
2013,12,06,00,52,0.00
2013,12,06,00,53,0.00
2013,12,06,00,54,0.00
2013,12,06,00,55,0.00
2013,12,06,00,56,0.00
2013,12,06,00,57,0.00
2013,12,06,00,58,0.00
2013,12,06,00,59,0.00
2013,12,06,01,00,0.00
2013,12,06,01,01,0.00
2013,12,06,01,02,0.00
2013,12,06,01,03,0.00
2013,12,06,01,04,0.00
2013,12,06,01,05,0.00
2013,12,06,01,06,0.00
2013,12,06,01,07,0.00
2013,12,06,01,08,0.00
2013,12,06,01,09,0.00
2013,12,06,01,10,0.00
2013,12,06,01,11,0.00
2013,12,06,01,12,0.00
2013,12,06,01,13,0.00
2013,12,06,01,14,0.00
2013,12,06,01,15,0.00
2013,12,06,01,16,0.00
2013,12,06,01,17,0.00
2013,12,06,01,18,0.00
2013,12,06,01,19,0.00
2013,12,06,01,20,0.00
2013,12,06,01,21,0.00
2013,12,06,01,22,0.00
2013,12,06,01,23,0.00
2013,12,06,01,24,0.00
2013,12,06,01,25,0.00
2013,12,06,01,26,0.00
2013,12,06,01,27,0.00
2013,12,06,01,28,0.00
2013,12,06,01,29,0.00
2013,12,06,01,30,0.00
2013,12,06,01,31,0.00
2013,12,06,01,32,0.00
2013,12,06,01,33,0.00
2013,12,06,01,34,0.00
2013,12,06,01,35,0.00
2013,12,06,01,36,0.00
2013,12,06,01,37,0.00
2013,12,06,01,38,0.00
2013,12,06,01,39,0.00
2013,12,06,01,40,0.00
2013,12,06,01,41,0.00
2013,12,06,01,42,0.00
2013,12,06,01,43,0.00
2013,12,06,01,44,0.00
2013,12,06,01,45,0.00
2013,12,06,01,46,0.00
2013,12,06,01,47,0.00
2013,12,06,01,48,0.00
2013,12,06,01,49,0.00
2013,12,06,01,50,0.00
2013,12,06,01,51,0.00
2013,12,06,01,52,0.00
2013,12,06,01,53,0.00
2013,12,06,01,54,0.00
2013,12,06,01,55,0.00
2013,12,06,01,56,0.00
2013,12,06,01,57,0.00
2013,12,06,01,58,0.00
2013,12,06,01,59,0.00
2013,12,06,02,00,0.00
2013,12,06,02,01,0.00
2013,12,06,02,02,0.00
2013,12,06,02,03,0.00
2013,12,06,02,04,0.00
2013,12,06,02,05,0.00
2013,12,06,02,06,0.00
2013,12,06,02,07,0.00
2013,12,06,02,08,0.00
2013,12,06,02,09,0.00
2013,12,06,02,10,0.00
2013,12,06,02,11,0.00
2013,12,06,02,12,0.00
2013,12,06,02,13,0.00
2013,12,06,02,14,0.00
2013,12,06,02,15,0.00
2013,12,06,02,16,0.00
2013,12,06,02,17,0.00
2013,12,06,02,18,0.00
2013,12,06,02,19,0.00
2013,12,06,02,20,0.00
2013,12,06,02,21,0.00
2013,12,06,02,22,0.00
2013,12,06,02,23,0.00
2013,12,06,02,24,0.00
2013,12,06,02,25,0.00
2013,12,06,02,26,0.00
2013,12,06,02,27,0.00
2013,12,06,02,28,0.00
2013,12,06,02,29,0.00
2013,12,06,02,30,0.00
2013,12,06,02,31,0.00
2013,12,06,02,32,0.00
2013,12,06,02,33,0.00
2013,12,06,02,34,0.00
2013,12,06,02,35,0.00
2013,12,06,02,36,0.00
2013,12,06,02,37,0.00
2013,12,06,02,38,0.00
2013,12,06,02,39,0.00
2013,12,06,02,40,0.00
2013,12,06,02,41,0.00
2013,12,06,02,42,0.00
2013,12,06,02,43,0.00
2013,12,06,02,44,0.00
2013,12,06,02,45,0.00
2013,12,06,02,46,0.00
2013,12,06,02,47,0.00
2013,12,06,02,48,0.00
2013,12,06,02,49,0.00
2013,12,06,02,50,0.00
2013,12,06,02,51,0.00
2013,12,06,02,52,0.00
2013,12,06,02,53,0.00
2013,12,06,02,54,0.00
2013,12,06,02,55,0.00
2013,12,06,02,56,0.00
2013,12,06,02,57,0.00
2013,12,06,02,58,0.00
2013,12,06,02,59,0.00
2013,12,06,03,00,0.00
2013,12,06,03,01,0.00
2013,12,06,03,02,0.00
2013,12,06,03,03,0.00
2013,12,06,03,04,0.00
2013,12,06,03,05,0.00
2013,12,06,03,06,0.00
2013,12,06,03,07,0.00
2013,12,06,03,08,0.00
2013,12,06,03,09,0.00
2013,12,06,03,10,0.00
2013,12,06,03,11,0.00
2013,12,06,03,12,0.00
2013,12,06,03,13,0.00
2013,12,06,03,14,0.00
2013,12,06,03,15,0.00
2013,12,06,03,16,0.00
2013,12,06,03,17,0.00
2013,12,06,03,18,0.00
2013,12,06,03,19,0.00
2013,12,06,03,20,0.00
2013,12,06,03,21,0.00
2013,12,06,03,22,0.00
2013,12,06,03,23,0.00
2013,12,06,03,24,0.00
2013,12,06,03,25,0.00
2013,12,06,03,26,0.00
2013,12,06,03,27,0.00
2013,12,06,03,28,0.00
2013,12,06,03,29,0.00
2013,12,06,03,30,0.00
2013,12,06,03,31,0.00
2013,12,06,03,32,0.00
2013,12,06,03,33,0.00
2013,12,06,03,34,0.00
2013,12,06,03,35,0.00
2013,12,06,03,36,0.00
2013,12,06,03,37,0.00
2013,12,06,03,38,0.00
2013,12,06,03,39,0.00
2013,12,06,03,40,0.00
2013,12,06,03,41,0.00
2013,12,06,03,42,0.00
2013,12,06,03,43,0.00
2013,12,06,03,44,0.00
2013,12,06,03,45,0.00
2013,12,06,03,46,0.00
2013,12,06,03,47,0.00
2013,12,06,03,48,0.00
2013,12,06,03,49,0.00
2013,12,06,03,50,0.00
2013,12,06,03,51,0.00
2013,12,06,03,52,0.00
2013,12,06,03,53,0.00
2013,12,06,03,54,0.00
2013,12,06,03,55,0.00
2013,12,06,03,56,0.00
2013,12,06,03,57,0.00
2013,12,06,03,58,0.00
2013,12,06,03,59,0.00
2013,12,06,04,00,0.00
2013,12,06,04,01,0.00
2013,12,06,04,02,0.00
2013,12,06,04,03,0.00
2013,12,06,04,04,0.00
2013,12,06,04,05,0.00
2013,12,06,04,06,0.00
2013,12,06,04,07,0.00
2013,12,06,04,08,0.00
2013,12,06,04,09,0.00
2013,12,06,04,10,0.00
2013,12,06,04,11,0.00
2013,12,06,04,12,0.00
2013,12,06,04,13,0.00
2013,12,06,04,14,0.00
2013,12,06,04,15,0.00
2013,12,06,04,16,0.00
2013,12,06,04,17,0.00
2013,12,06,04,18,0.00
2013,12,06,04,19,0.00
2013,12,06,04,20,0.00
2013,12,06,04,21,0.00
2013,12,06,04,22,0.00
2013,12,06,04,23,0.00
2013,12,06,04,24,0.00
2013,12,06,04,25,0.00
2013,12,06,04,26,0.00
2013,12,06,04,27,0.00
2013,12,06,04,28,0.00
2013,12,06,04,29,0.00
2013,12,06,04,30,0.00
2013,12,06,04,31,0.00
2013,12,06,04,32,0.00
2013,12,06,04,33,0.00
2013,12,06,04,34,0.00
2013,12,06,04,35,0.00
2013,12,06,04,36,0.00
2013,12,06,04,37,0.00
2013,12,06,04,38,0.00
2013,12,06,04,39,0.00
2013,12,06,04,40,0.00
2013,12,06,04,41,0.00
2013,12,06,04,42,0.00
2013,12,06,04,43,0.00
2013,12,06,04,44,0.00
2013,12,06,04,45,0.00
2013,12,06,04,46,0.00
2013,12,06,04,47,0.00
2013,12,06,04,48,0.00
2013,12,06,04,49,0.00
2013,12,06,04,50,0.00
2013,12,06,04,51,0.00
2013,12,06,04,52,0.00
2013,12,06,04,53,0.00
2013,12,06,04,54,0.00
2013,12,06,04,55,0.00
2013,12,06,04,56,0.00
2013,12,06,04,57,0.00
2013,12,06,04,58,0.00
2013,12,06,04,59,0.00
2013,12,06,05,00,0.00
2013,12,06,05,01,0.00
2013,12,06,05,02,0.00
2013,12,06,05,03,0.00
2013,12,06,05,04,0.00
2013,12,06,05,05,0.00
2013,12,06,05,06,0.00
2013,12,06,05,07,0.00
2013,12,06,05,08,0.00
2013,12,06,05,09,0.00
2013,12,06,05,10,0.00
2013,12,06,05,11,0.00
2013,12,06,05,12,0.00
2013,12,06,05,13,0.00
2013,12,06,05,14,0.00
2013,12,06,05,15,0.00
2013,12,06,05,16,0.00
2013,12,06,05,17,0.00
2013,12,06,05,18,0.00
2013,12,06,05,19,0.00
2013,12,06,05,20,0.00
2013,12,06,05,21,0.00
2013,12,06,05,22,0.00
2013,12,06,05,23,0.00
2013,12,06,05,24,0.00
2013,12,06,05,25,0.00
2013,12,06,05,26,0.00
2013,12,06,05,27,0.00
2013,12,06,05,28,0.00
2013,12,06,05,29,0.00
2013,12,06,05,30,0.00
2013,12,06,05,31,0.00
2013,12,06,05,32,0.00
2013,12,06,05,33,0.00
2013,12,06,05,34,0.00
2013,12,06,05,35,0.00
2013,12,06,05,36,0.00
2013,12,06,05,37,0.00
2013,12,06,05,38,0.00
2013,12,06,05,39,0.00
2013,12,06,05,40,0.00
2013,12,06,05,41,0.00
2013,12,06,05,42,0.00
2013,12,06,05,43,0.00
2013,12,06,05,44,0.00
2013,12,06,05,45,0.00
2013,12,06,05,46,0.00
2013,12,06,05,47,0.00
2013,12,06,05,48,0.00
2013,12,06,05,49,0.00
2013,12,06,05,50,0.00
2013,12,06,05,51,0.00
2013,12,06,05,52,0.00
2013,12,06,05,53,0.00
2013,12,06,05,54,0.00
2013,12,06,05,55,0.00
2013,12,06,05,56,0.00
2013,12,06,05,57,0.00
2013,12,06,05,58,0.00
2013,12,06,05,59,0.00
2013,12,06,06,00,0.00
2013,12,06,06,01,0.00
2013,12,06,06,02,0.00
2013,12,06,06,03,0.00
2013,12,06,06,04,0.00
2013,12,06,06,05,0.00
2013,12,06,06,06,0.00
2013,12,06,06,07,0.00
2013,12,06,06,08,0.00
2013,12,06,06,09,0.00
2013,12,06,06,10,0.00
2013,12,06,06,11,0.00
2013,12,06,06,12,0.00
2013,12,06,06,13,0.00
2013,12,06,06,14,0.00
2013,12,06,06,15,0.00
2013,12,06,06,16,0.00
2013,12,06,06,17,0.00
2013,12,06,06,18,0.00
2013,12,06,06,19,0.00
2013,12,06,06,20,0.00
2013,12,06,06,21,0.00
2013,12,06,06,22,0.00
2013,12,06,06,23,0.00
2013,12,06,06,24,0.00
2013,12,06,06,25,0.00
2013,12,06,06,26,0.00
2013,12,06,06,27,0.00
2013,12,06,06,28,0.00
2013,12,06,06,29,0.00
2013,12,06,06,30,0.00
2013,12,06,06,31,0.00
2013,12,06,06,32,0.00
2013,12,06,06,33,0.00
2013,12,06,06,34,0.00
2013,12,06,06,35,0.00
2013,12,06,06,36,0.00
2013,12,06,06,37,0.00
2013,12,06,06,38,0.00
2013,12,06,06,39,0.00
2013,12,06,06,40,0.00
2013,12,06,06,41,0.00
2013,12,06,06,42,0.00
2013,12,06,06,43,0.00
2013,12,06,06,44,0.00
2013,12,06,06,45,0.00
2013,12,06,06,46,0.00
2013,12,06,06,47,0.00
2013,12,06,06,48,0.00
2013,12,06,06,49,0.00
2013,12,06,06,50,0.00
2013,12,06,06,51,0.00
2013,12,06,06,52,0.00
2013,12,06,06,53,0.00
2013,12,06,06,54,0.00
2013,12,06,06,55,0.00
2013,12,06,06,56,0.00
2013,12,06,06,57,0.00
2013,12,06,06,58,0.00
2013,12,06,06,59,0.00
2013,12,06,07,00,0.00
2013,12,06,07,01,0.00
2013,12,06,07,02,0.00
2013,12,06,07,03,0.00
2013,12,06,07,04,0.00
2013,12,06,07,05,0.00
2013,12,06,07,06,0.00
2013,12,06,07,07,0.00
2013,12,06,07,08,0.00
2013,12,06,07,09,0.00
2013,12,06,07,10,0.00
2013,12,06,07,11,0.00
2013,12,06,07,12,0.00
2013,12,06,07,13,0.00
2013,12,06,07,14,0.00
2013,12,06,07,15,0.00
2013,12,06,07,16,0.00
2013,12,06,07,17,0.00
2013,12,06,07,18,0.00
2013,12,06,07,19,0.00
2013,12,06,07,20,0.00
2013,12,06,07,21,0.00
2013,12,06,07,22,0.00
2013,12,06,07,23,0.00
2013,12,06,07,24,0.00
2013,12,06,07,25,0.00
2013,12,06,07,26,0.00
2013,12,06,07,27,0.00
2013,12,06,07,28,0.00
2013,12,06,07,29,0.00
2013,12,06,07,30,0.00
2013,12,06,07,31,0.00
2013,12,06,07,32,0.00
2013,12,06,07,33,0.00
2013,12,06,07,34,0.00
2013,12,06,07,35,0.00
2013,12,06,07,36,0.00
2013,12,06,07,37,0.00
2013,12,06,07,38,0.00
2013,12,06,07,39,0.00
2013,12,06,07,40,0.00
2013,12,06,07,41,0.00
2013,12,06,07,42,0.00
2013,12,06,07,43,0.00
2013,12,06,07,44,0.00
2013,12,06,07,45,0.00
2013,12,06,07,46,0.00
2013,12,06,07,47,0.00
2013,12,06,07,48,0.00
2013,12,06,07,49,0.00
2013,12,06,07,50,0.00
2013,12,06,07,51,0.00
2013,12,06,07,52,0.00
2013,12,06,07,53,0.00
2013,12,06,07,54,0.00
2013,12,06,07,55,0.00
2013,12,06,07,56,0.00
2013,12,06,07,57,0.00
2013,12,06,07,58,0.00
2013,12,06,07,59,0.00
2013,12,06,08,00,0.00
2013,12,06,08,01,0.00
2013,12,06,08,02,0.00
2013,12,06,08,03,0.00
2013,12,06,08,04,0.00
2013,12,06,08,05,0.00
2013,12,06,08,06,0.00
2013,12,06,08,07,0.00
2013,12,06,08,08,0.00
2013,12,06,08,09,0.00
2013,12,06,08,10,0.00
2013,12,06,08,11,0.00
2013,12,06,08,12,0.00
2013,12,06,08,13,0.00
2013,12,06,08,14,0.00
2013,12,06,08,15,0.00
2013,12,06,08,16,0.00
2013,12,06,08,17,0.00
2013,12,06,08,18,0.00
2013,12,06,08,19,0.00
2013,12,06,08,20,0.00
2013,12,06,08,21,0.00
2013,12,06,08,22,0.00
2013,12,06,08,23,0.00
2013,12,06,08,24,0.00
2013,12,06,08,25,0.00
2013,12,06,08,26,0.00
2013,12,06,08,27,0.00
2013,12,06,08,28,0.00
2013,12,06,08,29,0.00
2013,12,06,08,30,0.00
2013,12,06,08,31,0.00
2013,12,06,08,32,0.00
2013,12,06,08,33,0.00
2013,12,06,08,34,0.00
2013,12,06,08,35,0.00
2013,12,06,08,36,0.00
2013,12,06,08,37,0.00
2013,12,06,08,38,0.00
2013,12,06,08,39,0.00
2013,12,06,08,40,0.50
2013,12,06,08,41,5.00
2013,12,06,08,42,5.00
2013,12,06,08,43,5.00
2013,12,06,08,44,5.00
2013,12,06,08,45,5.00
2013,12,06,08,46,5.00
2013,12,06,08,47,5.00
2013,12,06,08,48,5.00
2013,12,06,08,49,5.00
2013,12,06,08,50,5.00
2013,12,06,08,51,5.00
2013,12,06,08,52,5.00
2013,12,06,08,53,5.00
2013,12,06,08,54,5.00
2013,12,06,08,55,5.00
2013,12,06,08,56,5.00
2013,12,06,08,57,5.00
2013,12,06,08,58,5.00
2013,12,06,08,59,5.00
2013,12,06,09,00,5.00
2013,12,06,09,01,5.00
2013,12,06,09,02,5.00
2013,12,06,09,03,5.00
2013,12,06,09,04,5.00
2013,12,06,09,05,5.00
2013,12,06,09,06,5.00
2013,12,06,09,07,6.70
2013,12,06,09,08,5.30
2013,12,06,09,09,7.00
2013,12,06,09,10,7.00
2013,12,06,09,11,7.00
2013,12,06,09,12,7.00
2013,12,06,09,13,7.00
2013,12,06,09,14,7.00
2013,12,06,09,15,7.00
2013,12,06,09,16,7.00
2013,12,06,09,17,7.00
2013,12,06,09,18,7.00
2013,12,06,09,19,7.00
2013,12,06,09,20,27.30
2013,12,06,09,21,36.70
2013,12,06,09,22,37.00
2013,12,06,09,23,37.00
2013,12,06,09,24,37.80
2013,12,06,09,25,39.00
2013,12,06,09,26,39.00
2013,12,06,09,27,39.70
2013,12,06,09,28,40.00
2013,12,06,09,29,40.00
2013,12,06,09,30,40.40
2013,12,06,09,31,42.00
2013,12,06,09,32,42.00
2013,12,06,09,33,43.20
2013,12,06,09,34,44.00
2013,12,06,09,35,44.00
2013,12,06,09,36,46.00
2013,12,06,09,37,46.00
2013,12,06,09,38,46.00
2013,12,06,09,39,46.50
2013,12,06,09,40,47.00
2013,12,06,09,41,47.00
2013,12,06,09,42,47.00
2013,12,06,09,43,48.90
2013,12,06,09,44,49.00
2013,12,06,09,45,49.00
2013,12,06,09,46,49.00
2013,12,06,09,47,49.00
2013,12,06,09,48,50.40
2013,12,06,09,49,51.00
2013,12,06,09,50,51.00
2013,12,06,09,51,51.00
2013,12,06,09,52,51.70
2013,12,06,09,53,53.00
2013,12,06,09,54,53.00
2013,12,06,09,55,53.00
2013,12,06,09,56,53.00
2013,12,06,09,57,54.00
2013,12,06,09,58,54.00
2013,12,06,09,59,54.00
2013,12,06,10,00,54.00
2013,12,06,10,01,54.00
2013,12,06,10,02,54.00
2013,12,06,10,03,55.70
2013,12,06,10,04,56.00
2013,12,06,10,05,56.00
2013,12,06,10,06,56.00
2013,12,06,10,07,56.00
2013,12,06,10,08,56.00
2013,12,06,10,09,56.00
2013,12,06,10,10,57.70
2013,12,06,10,11,58.00
2013,12,06,10,12,58.00
2013,12,06,10,13,58.00
2013,12,06,10,14,58.00
2013,12,06,10,15,58.00
2013,12,06,10,16,58.00
2013,12,06,10,17,58.00
2013,12,06,10,18,59.90
2013,12,06,10,19,60.00
2013,12,06,10,20,60.00
2013,12,06,10,21,60.00
2013,12,06,10,22,60.00
2013,12,06,10,23,60.00
2013,12,06,10,24,60.00
2013,12,06,10,25,60.00
2013,12,06,10,26,60.50
2013,12,06,10,27,62.00
2013,12,06,10,28,62.00
2013,12,06,10,29,62.00
2013,12,06,10,30,62.00
2013,12,06,10,31,62.00
2013,12,06,10,32,62.00
2013,12,06,10,33,62.00
2013,12,06,10,34,62.30
2013,12,06,10,35,63.00
2013,12,06,10,36,63.00
2013,12,06,10,37,63.00
2013,12,06,10,38,63.00
2013,12,06,10,39,63.00
2013,12,06,10,40,63.00
2013,12,06,10,41,63.00
2013,12,06,10,42,64.00
2013,12,06,10,43,65.00
2013,12,06,10,44,65.00
2013,12,06,10,45,66.70
2013,12,06,10,46,65.00
2013,12,06,10,47,65.50
2013,12,06,10,48,67.00
2013,12,06,10,49,68.00
2013,12,06,10,50,69.00
2013,12,06,10,51,69.00
2013,12,06,10,52,71.60
2013,12,06,10,53,72.20
2013,12,06,10,54,74.50
2013,12,06,10,55,76.40
2013,12,06,10,56,79.00
2013,12,06,10,57,82.20
2013,12,06,10,58,83.00
2013,12,06,10,59,83.90
2013,12,06,11,00,84.20
2013,12,06,11,01,86.50
2013,12,06,11,02,88.80
2013,12,06,11,03,90.50
2013,12,06,11,04,92.20
2013,12,06,11,05,93.00
2013,12,06,11,06,94.70
2013,12,06,11,07,97.00
2013,12,06,11,08,98.00
2013,12,06,11,09,98.70
2013,12,06,11,10,100.00
2013,12,06,11,11,101.20
2013,12,06,11,12,103.40
2013,12,06,11,13,104.00
2013,12,06,11,14,105.40
2013,12,06,11,15,109.50
2013,12,06,11,16,111.00
2013,12,06,11,17,112.00
2013,12,06,11,18,113.60
2013,12,06,11,19,116.90
2013,12,06,11,20,118.00
2013,12,06,11,21,121.40
2013,12,06,11,22,125.70
2013,12,06,11,23,128.70
2013,12,06,11,24,134.30
2013,12,06,11,25,140.90
2013,12,06,11,26,143.50
2013,12,06,11,27,147.40
2013,12,06,11,28,163.50
2013,12,06,11,29,178.20
2013,12,06,11,30,186.80
2013,12,06,11,31,192.40
2013,12,06,11,32,197.50
2013,12,06,11,33,204.20
2013,12,06,11,34,212.00
2013,12,06,11,35,213.80
2013,12,06,11,36,223.40
2013,12,06,11,37,237.20
2013,12,06,11,38,246.90
2013,12,06,11,39,244.80
2013,12,06,11,40,239.50
2013,12,06,11,41,246.80
2013,12,06,11,42,254.00
2013,12,06,11,43,262.00
2013,12,06,11,44,261.30
2013,12,06,11,45,262.40
2013,12,06,11,46,261.90
2013,12,06,11,47,261.50
2013,12,06,11,48,301.70
2013,12,06,11,49,330.60
2013,12,06,11,50,335.50
2013,12,06,11,51,334.00
2013,12,06,11,52,331.50
2013,12,06,11,53,320.30
2013,12,06,11,54,321.00
2013,12,06,11,55,310.10
2013,12,06,11,56,296.70
2013,12,06,11,57,296.80
2013,12,06,11,58,308.10
2013,12,06,11,59,314.50
2013,12,06,12,00,315.30
2013,12,06,12,01,314.40
2013,12,06,12,02,311.30
2013,12,06,12,03,301.10
2013,12,06,12,04,294.30
2013,12,06,12,05,312.30
2013,12,06,12,06,321.00
2013,12,06,12,07,318.30
2013,12,06,12,08,315.20
2013,12,06,12,09,345.20
2013,12,06,12,10,362.80
2013,12,06,12,11,366.80
2013,12,06,12,12,363.90
2013,12,06,12,13,365.70
2013,12,06,12,14,376.80
2013,12,06,12,15,408.20
2013,12,06,12,16,472.40
2013,12,06,12,17,496.00
2013,12,06,12,18,490.50
2013,12,06,12,19,476.70
2013,12,06,12,20,454.70
2013,12,06,12,21,451.60
2013,12,06,12,22,448.20
2013,12,06,12,23,461.40
2013,12,06,12,24,461.30
2013,12,06,12,25,452.60
2013,12,06,12,26,445.40
2013,12,06,12,27,443.60
2013,12,06,12,28,439.20
2013,12,06,12,29,423.50
2013,12,06,12,30,421.40
2013,12,06,12,31,398.90
2013,12,06,12,32,387.80
2013,12,06,12,33,381.00
2013,12,06,12,34,367.50
2013,12,06,12,35,300.90
2013,12,06,12,36,201.50
2013,12,06,12,37,103.10
2013,12,06,12,38,43.50
2013,12,06,12,39,38.00
2013,12,06,12,40,35.00
2013,12,06,12,41,35.00
2013,12,06,12,42,39.30
2013,12,06,12,43,43.50
2013,12,06,12,44,36.20
2013,12,06,12,45,44.20
2013,12,06,12,46,64.40
2013,12,06,12,47,92.20
2013,12,06,12,48,145.60
2013,12,06,12,49,114.60
2013,12,06,12,50,56.50
2013,12,06,12,51,40.00
2013,12,06,12,52,35.00
2013,12,06,12,53,35.00
2013,12,06,12,54,35.00
2013,12,06,12,55,35.00
2013,12,06,12,56,35.00
2013,12,06,12,57,36.40
2013,12,06,12,58,43.00
2013,12,06,12,59,52.10
2013,12,06,13,00,44.40
2013,12,06,13,01,34.20
2013,12,06,13,02,32.50
2013,12,06,13,03,30.80
2013,12,06,13,04,31.40
2013,12,06,13,05,32.90
2013,12,06,13,06,32.90
2013,12,06,13,07,32.20
2013,12,06,13,08,36.90
2013,12,06,13,09,43.00
2013,12,06,13,10,36.40
2013,12,06,13,11,36.00
2013,12,06,13,12,61.10
2013,12,06,13,13,88.70
2013,12,06,13,14,67.80
2013,12,06,13,15,59.20
2013,12,06,13,16,82.00
2013,12,06,13,17,85.50
2013,12,06,13,18,78.00
2013,12,06,13,19,88.10
2013,12,06,13,20,77.90
2013,12,06,13,21,89.00
2013,12,06,13,22,88.40
2013,12,06,13,23,81.90
2013,12,06,13,24,59.70
2013,12,06,13,25,41.40
2013,12,06,13,26,35.30
2013,12,06,13,27,39.50
2013,12,06,13,28,35.30
2013,12,06,13,29,30.00
2013,12,06,13,30,30.00
2013,12,06,13,31,30.00
2013,12,06,13,32,30.00
2013,12,06,13,33,36.00
2013,12,06,13,34,54.10
2013,12,06,13,35,61.30
2013,12,06,13,36,58.30
2013,12,06,13,37,75.00
2013,12,06,13,38,95.40
2013,12,06,13,39,82.00
2013,12,06,13,40,57.80
2013,12,06,13,41,48.90
2013,12,06,13,42,42.90
2013,12,06,13,43,33.00
2013,12,06,13,44,33.00
2013,12,06,13,45,31.20
2013,12,06,13,46,30.00
2013,12,06,13,47,40.30
2013,12,06,13,48,51.30
2013,12,06,13,49,53.20
2013,12,06,13,50,54.80
2013,12,06,13,51,48.00
2013,12,06,13,52,32.60
2013,12,06,13,53,33.30
2013,12,06,13,54,43.00
2013,12,06,13,55,50.20
2013,12,06,13,56,65.50
2013,12,06,13,57,83.80
2013,12,06,13,58,65.00
2013,12,06,13,59,54.90
2013,12,06,14,00,92.80
2013,12,06,14,01,118.80
2013,12,06,14,02,66.20
2013,12,06,14,03,33.80
2013,12,06,14,04,29.20
2013,12,06,14,05,28.00
2013,12,06,14,06,26.80
2013,12,06,14,07,26.00
2013,12,06,14,08,26.00
2013,12,06,14,09,26.00
2013,12,06,14,10,26.00
2013,12,06,14,11,26.00
2013,12,06,14,12,26.00
2013,12,06,14,13,26.00
2013,12,06,14,14,26.00
2013,12,06,14,15,26.00
2013,12,06,14,16,26.00
2013,12,06,14,17,25.80
2013,12,06,14,18,25.00
2013,12,06,14,19,25.00
2013,12,06,14,20,25.00
2013,12,06,14,21,25.80
2013,12,06,14,22,25.10
2013,12,06,14,23,25.00
2013,12,06,14,24,25.00
2013,12,06,14,25,25.00
2013,12,06,14,26,27.40
2013,12,06,14,27,39.70
2013,12,06,14,28,51.10
2013,12,06,14,29,35.80
2013,12,06,14,30,25.00
2013,12,06,14,31,25.00
2013,12,06,14,32,25.00
2013,12,06,14,33,25.00
2013,12,06,14,34,23.80
2013,12,06,14,35,23.00
2013,12,06,14,36,23.00
2013,12,06,14,37,23.00
2013,12,06,14,38,23.00
2013,12,06,14,39,23.00
2013,12,06,14,40,23.00
2013,12,06,14,41,23.00
2013,12,06,14,42,23.00
2013,12,06,14,43,23.00
2013,12,06,14,44,23.00
2013,12,06,14,45,23.00
2013,12,06,14,46,23.00
2013,12,06,14,47,23.00
2013,12,06,14,48,23.00
2013,12,06,14,49,21.60
2013,12,06,14,50,21.00
2013,12,06,14,51,21.00
2013,12,06,14,52,21.00
2013,12,06,14,53,21.00
2013,12,06,14,54,21.00
2013,12,06,14,55,21.00
2013,12,06,14,56,21.00
2013,12,06,14,57,21.00
2013,12,06,14,58,21.00
2013,12,06,14,59,21.00
2013,12,06,15,00,21.00
2013,12,06,15,01,21.00
2013,12,06,15,02,21.00
2013,12,06,15,03,21.00
2013,12,06,15,04,19.30
2013,12,06,15,05,19.00
2013,12,06,15,06,19.00
2013,12,06,15,07,19.00
2013,12,06,15,08,19.00
2013,12,06,15,09,19.00
2013,12,06,15,10,19.00
2013,12,06,15,11,19.00
2013,12,06,15,12,19.00
2013,12,06,15,13,19.00
2013,12,06,15,14,19.00
2013,12,06,15,15,18.50
2013,12,06,15,16,18.00
2013,12,06,15,17,18.00
2013,12,06,15,18,18.00
2013,12,06,15,19,18.00
2013,12,06,15,20,18.00
2013,12,06,15,21,18.00
2013,12,06,15,22,18.00
2013,12,06,15,23,18.00
2013,12,06,15,24,18.00
2013,12,06,15,25,18.00
2013,12,06,15,26,16.00
2013,12,06,15,27,16.00
2013,12,06,15,28,16.00
2013,12,06,15,29,16.00
2013,12,06,15,30,16.00
2013,12,06,15,31,16.00
2013,12,06,15,32,16.00
2013,12,06,15,33,16.00
2013,12,06,15,34,16.00
2013,12,06,15,35,15.20
2013,12,06,15,36,14.00
2013,12,06,15,37,14.00
2013,12,06,15,38,14.00
2013,12,06,15,39,14.00
2013,12,06,15,40,14.00
2013,12,06,15,41,13.50
2013,12,06,15,42,12.00
2013,12,06,15,43,12.00
2013,12,06,15,44,12.00
2013,12,06,15,45,12.00
2013,12,06,15,46,12.00
2013,12,06,15,47,12.00
2013,12,06,15,48,12.00
2013,12,06,15,49,11.70
2013,12,06,15,50,11.00
2013,12,06,15,51,11.00
2013,12,06,15,52,11.00
2013,12,06,15,53,11.00
2013,12,06,15,54,11.00
2013,12,06,15,55,11.00
2013,12,06,15,56,11.00
2013,12,06,15,57,10.00
2013,12,06,15,58,9.00
2013,12,06,15,59,9.00
2013,12,06,16,00,9.00
2013,12,06,16,01,9.00
2013,12,06,16,02,9.00
2013,12,06,16,03,9.00
2013,12,06,16,04,8.00
2013,12,06,16,05,7.00
2013,12,06,16,06,7.00
2013,12,06,16,07,7.00
2013,12,06,16,08,7.00
2013,12,06,16,09,7.00
2013,12,06,16,10,7.00
2013,12,06,16,11,6.00
2013,12,06,16,12,5.00
2013,12,06,16,13,5.00
2013,12,06,16,14,5.00
2013,12,06,16,15,5.00
2013,12,06,16,16,5.00
2013,12,06,16,17,5.00
2013,12,06,16,18,5.00
2013,12,06,16,19,5.00
2013,12,06,16,20,1.20
2013,12,06,16,21,0.00
2013,12,06,16,22,0.00
2013,12,06,16,23,0.00
2013,12,06,16,24,0.00
2013,12,06,16,25,0.00
2013,12,06,16,26,0.00
2013,12,06,16,27,0.00
2013,12,06,16,28,0.00
2013,12,06,16,29,0.00
2013,12,06,16,30,0.00
2013,12,06,16,31,0.00
2013,12,06,16,32,0.00
2013,12,06,16,33,0.00
2013,12,06,16,34,0.00
2013,12,06,16,35,0.00
2013,12,06,16,36,0.00
2013,12,06,16,37,0.00
2013,12,06,16,38,0.00
2013,12,06,16,39,0.00
2013,12,06,16,40,0.00
2013,12,06,16,41,0.00
2013,12,06,16,42,0.00
2013,12,06,16,43,0.00
2013,12,06,16,44,0.00
2013,12,06,16,45,0.00
2013,12,06,16,46,0.00
2013,12,06,16,47,0.00
2013,12,06,16,48,0.00
2013,12,06,16,49,0.00
2013,12,06,16,50,0.00
2013,12,06,16,51,0.00
2013,12,06,16,52,0.00
2013,12,06,16,53,0.00
2013,12,06,16,54,0.00
2013,12,06,16,55,0.00
2013,12,06,16,56,0.00
2013,12,06,16,57,0.00
2013,12,06,16,58,0.00
2013,12,06,16,59,0.00
2013,12,06,17,00,0.00
2013,12,06,17,01,0.00
2013,12,06,17,02,0.00
2013,12,06,17,03,0.00
2013,12,06,17,04,0.00
2013,12,06,17,05,0.00
2013,12,06,17,06,0.00
2013,12,06,17,07,0.00
2013,12,06,17,08,0.00
2013,12,06,17,09,0.00
2013,12,06,17,10,0.00
2013,12,06,17,11,0.00
2013,12,06,17,12,0.00
2013,12,06,17,13,0.00
2013,12,06,17,14,0.00
2013,12,06,17,15,0.00
2013,12,06,17,16,0.00
2013,12,06,17,17,0.00
2013,12,06,17,18,0.00
2013,12,06,17,19,0.00
2013,12,06,17,20,0.00
2013,12,06,17,21,0.00
2013,12,06,17,22,0.00
2013,12,06,17,23,0.00
2013,12,06,17,24,0.00
2013,12,06,17,25,0.00
2013,12,06,17,26,0.00
2013,12,06,17,27,0.00
2013,12,06,17,28,0.00
2013,12,06,17,29,0.00
2013,12,06,17,30,0.00
2013,12,06,17,31,0.00
2013,12,06,17,32,0.00
2013,12,06,17,33,0.00
2013,12,06,17,34,0.00
2013,12,06,17,35,0.00
2013,12,06,17,36,0.00
2013,12,06,17,37,0.00
2013,12,06,17,38,0.00
2013,12,06,17,39,0.00
2013,12,06,17,40,0.00
2013,12,06,17,41,0.00
2013,12,06,17,42,0.00
2013,12,06,17,43,0.00
2013,12,06,17,44,0.00